timestamp,surface_pressure_avg,surface_temp_avg,battery_voltage,lat,long
2018-12-01 00:00:00+00:00,244.0814,4.4,12.73,47.84626,-54.09684
2018-12-01 00:10:00+00:00,240.9864,4.4,12.73,47.84626,-54.09684
2018-12-01 00:20:00+00:00,239.0381,4.4,12.81,47.84626,-54.09684
2018-12-01 00:30:00+00:00,238.6314,4.4,12.81,47.84626,-54.09684
2018-12-01 00:40:00+00:00,237.0248,4.4,12.81,47.84626,-54.09684
2018-12-01 00:50:00+00:00,236.5398,4.4,12.81,47.84626,-54.09684
2018-12-01 01:00:00+00:00,236.8231,4.4,12.73,47.84626,-54.09684
2018-12-01 01:10:00+00:00,236.4748,4.36,12.73,47.84626,-54.09684
2018-12-01 01:20:00+00:00,235.8814,4.32,12.81,47.84626,-54.09684
2018-12-01 01:30:00+00:00,237.5481,4.38,12.81,47.84626,-54.09684
2018-12-01 01:40:00+00:00,238.8881,4.4,12.81,47.84626,-54.09684
2018-12-01 01:50:00+00:00,237.9248,4.39,12.81,47.84626,-54.09684
2018-12-01 02:00:00+00:00,239.5148,4.33,12.73,47.84626,-54.09684
2018-12-01 02:10:00+00:00,246.8114,4.3,12.65,47.84626,-54.09684
2018-12-01 02:20:00+00:00,253.4281,4.3,12.81,47.84626,-54.09684
2018-12-01 02:30:00+00:00,256.3264,4.3,12.81,47.84626,-54.09684
2018-12-01 02:40:00+00:00,260.6497,4.3,12.81,47.84626,-54.09684
2018-12-01 02:50:00+00:00,267.5781,4.3,12.81,47.84626,-54.09684
2018-12-01 03:00:00+00:00,275.2598,4.3,12.73,47.84626,-54.09684
2018-12-01 03:10:00+00:00,284.0031,4.28,12.65,47.84626,-54.09684
2018-12-01 03:20:00+00:00,292.6347,4.27,12.81,47.84626,-54.09684
2018-12-01 03:30:00+00:00,299.4131,4.27,12.81,47.84626,-54.09684
2018-12-01 03:40:00+00:00,303.423,4.22,12.81,47.84626,-54.09684
2018-12-01 03:50:00+00:00,306.6296,4.2,12.81,47.84626,-54.09684
2018-12-01 04:00:00+00:00,313.4496,4.2,12.73,47.84626,-54.09684
2018-12-01 04:10:00+00:00,319.528,4.2,12.65,47.84626,-54.09684
2018-12-01 04:20:00+00:00,322.858,4.2,12.73,47.84626,-54.09684
2018-12-01 04:30:00+00:00,327.2513,4.2,12.81,47.84626,-54.09684
2018-12-01 04:40:00+00:00,332.4813,4.2,12.81,47.84626,-54.09684
2018-12-01 04:50:00+00:00,334.8864,4.2,12.81,47.84626,-54.09684
2018-12-01 05:00:00+00:00,336.3864,4.2,12.73,47.84626,-54.09684
2018-12-01 05:10:00+00:00,338.4464,4.2,12.65,47.84626,-54.09684
2018-12-01 05:20:00+00:00,340.083,4.2,12.73,47.84626,-54.09684
2018-12-01 05:30:00+00:00,341.2014,4.2,12.81,47.84626,-54.09684
2018-12-01 05:40:00+00:00,345.4929,4.2,12.81,47.84626,-54.09684
2018-12-01 05:50:00+00:00,345.2147,4.2,12.81,47.84626,-54.09684
2018-12-01 06:00:00+00:00,344.3663,4.2,12.73,47.84626,-54.09684
2018-12-01 06:10:00+00:00,348.5229,4.19,12.65,47.84626,-54.09684
2018-12-01 06:20:00+00:00,352.4912,4.2,12.73,47.84626,-54.09684
2018-12-01 06:30:00+00:00,352.5896,4.2,12.73,47.84626,-54.09684
2018-12-01 06:40:00+00:00,353.4012,4.2,12.81,47.84626,-54.09684
2018-12-01 06:50:00+00:00,356.2845,4.2,12.81,47.84626,-54.09684
2018-12-01 07:00:00+00:00,354.6113,4.2,12.73,47.84626,-54.09684
2018-12-01 07:10:00+00:00,352.1846,4.19,12.65,47.84626,-54.09684
2018-12-01 07:20:00+00:00,354.2147,4.19,12.73,47.84626,-54.09684
2018-12-01 07:30:00+00:00,351.898,4.19,12.73,47.84626,-54.09684
2018-12-01 07:40:00+00:00,343.9213,4.19,12.81,47.84626,-54.09684
2018-12-01 07:50:00+00:00,339.2097,4.18,12.81,47.84626,-54.09684
2018-12-01 08:00:00+00:00,337.6163,4.19,12.73,47.84626,-54.09684
2018-12-01 08:10:00+00:00,333.7913,4.2,12.65,47.84626,-54.09684
2018-12-01 08:20:00+00:00,325.9147,4.2,12.73,47.84626,-54.09684
2018-12-01 08:30:00+00:00,320.813,4.2,12.73,47.84626,-54.09684
2018-12-01 08:40:00+00:00,314.0697,4.2,12.81,47.84626,-54.09684
2018-12-01 08:50:00+00:00,306.0914,4.2,12.81,47.84626,-54.09684
2018-12-01 09:00:00+00:00,300.8563,4.2,12.73,47.84626,-54.09684
2018-12-01 09:10:00+00:00,293.6297,4.2,12.65,47.84626,-54.09684
2018-12-01 09:20:00+00:00,284.4481,4.17,12.73,47.84626,-54.09684
2018-12-01 09:30:00+00:00,280.2563,4.19,12.73,47.84626,-54.09684
2018-12-01 09:40:00+00:00,278.1014,4.18,12.81,47.84626,-54.09684
2018-12-01 09:50:00+00:00,272.5164,4.1,12.81,47.84626,-54.09684
2018-12-01 10:00:00+00:00,267.5381,4.1,12.73,47.84626,-54.09684
2018-12-01 10:10:00+00:00,266.7898,4.1,12.65,47.84626,-54.09684
2018-12-01 10:20:00+00:00,264.7331,4.1,12.73,47.84626,-54.09684
2018-12-01 10:30:00+00:00,261.0014,4.1,12.73,47.84626,-54.09684
2018-12-01 10:40:00+00:00,258.0297,4.1,12.81,47.84626,-54.09684
2018-12-01 10:50:00+00:00,256.4614,4.1,12.81,47.84626,-54.09684
2018-12-01 11:00:00+00:00,253.6381,4.1,12.73,47.84626,-54.09684
2018-12-01 11:10:00+00:00,251.1314,4.1,12.65,47.84626,-54.09684
2018-12-01 11:20:00+00:00,251.4397,4.1,12.73,47.84626,-54.09684
2018-12-01 11:30:00+00:00,252.2064,4.1,12.73,47.84626,-54.09684
2018-12-01 11:40:00+00:00,249.5181,4.1,12.81,47.84626,-54.09684
2018-12-01 11:50:00+00:00,246.6397,4.1,12.89,47.84626,-54.09684
2018-12-01 12:00:00+00:00,248.7414,4.09,12.97,47.84626,-54.09684
2018-12-01 12:10:00+00:00,248.7131,4.09,12.97,47.84626,-54.09684
2018-12-01 12:20:00+00:00,246.8698,4.08,13.05,47.84626,-54.09684
2018-12-01 12:30:00+00:00,246.1614,4.06,13.13,47.84626,-54.09684
2018-12-01 12:40:00+00:00,248.2548,4.05,13.37,47.84626,-54.09684
2018-12-01 12:50:00+00:00,246.7764,4.01,14.24,47.84626,-54.09684
2018-12-01 13:00:00+00:00,247.6781,4.0,13.76,47.84626,-54.09684
2018-12-01 13:10:00+00:00,251.0697,4.01,13.6,47.84626,-54.09684
2018-12-01 13:20:00+00:00,252.8464,4.03,13.84,47.84626,-54.09684
2018-12-01 13:30:00+00:00,250.7081,4.0,13.76,47.84626,-54.09684
2018-12-01 13:40:00+00:00,251.3297,4.0,13.92,47.84626,-54.09684
2018-12-01 13:50:00+00:00,255.4514,4.0,14.24,47.84626,-54.09684
2018-12-01 14:00:00+00:00,257.5831,4.0,13.84,47.84626,-54.09684
2018-12-01 14:10:00+00:00,257.9497,4.0,13.6,47.84626,-54.09684
2018-12-01 14:20:00+00:00,261.6847,4.0,13.6,47.84626,-54.09684
2018-12-01 14:30:00+00:00,266.5698,4.0,13.68,47.84626,-54.09684
2018-12-01 14:40:00+00:00,267.5947,4.0,13.76,47.84626,-54.09684
2018-12-01 14:50:00+00:00,267.3514,4.0,14.08,47.84626,-54.09684
2018-12-01 15:00:00+00:00,270.6531,4.0,14.0,47.84626,-54.09684
2018-12-01 15:10:00+00:00,272.2881,4.0,13.76,47.84626,-54.09684
2018-12-01 15:20:00+00:00,273.4897,4.0,14.08,47.84626,-54.09684
2018-12-01 15:30:00+00:00,277.563,4.0,14.0,47.84626,-54.09684
2018-12-01 15:40:00+00:00,284.7113,4.0,15.75,47.84626,-54.09684
2018-12-01 15:50:00+00:00,289.8763,4.0,14.88,47.84626,-54.09684
2018-12-01 16:00:00+00:00,297.1063,4.0,14.72,47.84626,-54.09684
2018-12-01 16:10:00+00:00,304.7447,4.0,14.64,47.84626,-54.09684
2018-12-01 16:20:00+00:00,309.998,4.0,14.8,47.84626,-54.09684
2018-12-01 16:30:00+00:00,315.168,4.0,14.96,47.84626,-54.09684
2018-12-01 16:40:00+00:00,320.473,4.0,14.96,47.84626,-54.09684
2018-12-01 16:50:00+00:00,323.2979,4.0,14.88,47.84626,-54.09684
2018-12-01 17:00:00+00:00,326.448,4.0,14.72,47.84626,-54.09684
2018-12-01 17:10:00+00:00,330.5963,4.0,14.72,47.84626,-54.09684
2018-12-01 17:20:00+00:00,332.6929,4.0,14.72,47.84626,-54.09684
2018-12-01 17:30:00+00:00,335.0095,4.01,14.72,47.84626,-54.09684
2018-12-01 17:40:00+00:00,341.3663,4.03,14.72,47.84626,-54.09684
2018-12-01 17:50:00+00:00,344.9846,4.02,14.64,47.84626,-54.09684
2018-12-01 18:00:00+00:00,345.4097,4.03,14.64,47.84626,-54.09684
2018-12-01 18:10:00+00:00,348.1846,4.0,14.48,47.84626,-54.09684
2018-12-01 18:20:00+00:00,351.8146,4.0,14.64,47.84626,-54.09684
2018-12-01 18:30:00+00:00,352.403,4.0,14.56,47.84626,-54.09684
2018-12-01 18:40:00+00:00,352.5479,4.0,14.56,47.84626,-54.09684
2018-12-01 18:50:00+00:00,355.3762,4.0,14.48,47.84626,-54.09684
2018-12-01 19:00:00+00:00,357.2464,4.0,14.32,47.84626,-54.09684
2018-12-01 19:10:00+00:00,353.798,4.0,14.0,47.84626,-54.09684
2018-12-01 19:20:00+00:00,353.4313,4.0,13.92,47.84626,-54.09684
2018-12-01 19:30:00+00:00,358.1496,4.0,13.76,47.84626,-54.09684
2018-12-01 19:40:00+00:00,357.128,4.0,13.68,47.84626,-54.09684
2018-12-01 19:50:00+00:00,351.2112,4.0,13.6,47.84626,-54.09684
2018-12-01 20:00:00+00:00,349.3729,4.0,13.44,47.84626,-54.09684
2018-12-01 20:10:00+00:00,349.2597,4.0,13.29,47.84626,-54.09684
2018-12-01 20:20:00+00:00,343.8528,4.0,13.29,47.84626,-54.09684
2018-12-01 20:30:00+00:00,338.6079,4.0,13.29,47.84626,-54.09684
2018-12-01 20:40:00+00:00,334.9063,3.98,13.29,47.84626,-54.09684
2018-12-01 20:50:00+00:00,329.3497,3.97,13.29,47.84626,-54.09684
2018-12-01 21:00:00+00:00,321.6196,3.98,13.21,47.84626,-54.09684
2018-12-01 21:10:00+00:00,314.6647,4.0,13.13,47.84626,-54.09684
2018-12-01 21:20:00+00:00,309.443,3.99,13.21,47.84626,-54.09684
2018-12-01 21:30:00+00:00,301.223,4.0,13.21,47.84626,-54.09684
2018-12-01 21:40:00+00:00,291.803,4.0,13.21,47.84626,-54.09684
2018-12-01 21:50:00+00:00,286.5814,3.9,13.21,47.84626,-54.09684
2018-12-01 22:00:00+00:00,283.1264,3.9,13.13,47.84626,-54.09684
2018-12-01 22:10:00+00:00,277.0997,3.8,13.05,47.84626,-54.09684
2018-12-01 22:20:00+00:00,270.8415,3.7,13.13,47.84626,-54.09684
2018-12-01 22:30:00+00:00,267.813,3.7,13.13,47.84626,-54.09684
2018-12-01 22:40:00+00:00,263.0347,3.7,13.13,47.84626,-54.09684
2018-12-01 22:50:00+00:00,256.7664,3.7,13.13,47.84626,-54.09684
2018-12-01 23:00:00+00:00,252.8764,3.7,13.05,47.84626,-54.09684
2018-12-01 23:10:00+00:00,248.1714,3.7,13.05,47.84626,-54.09684
2018-12-01 23:20:00+00:00,240.9847,3.7,13.13,47.84626,-54.09684
2018-12-01 23:30:00+00:00,236.3914,3.7,13.13,47.84626,-54.09684
2018-12-01 23:40:00+00:00,235.5997,3.7,13.13,47.84626,-54.09684
2018-12-01 23:50:00+00:00,234.6714,3.7,13.13,47.84626,-54.09684
